Overview Statistics Trail Chart Weather Telemetry Raw packets
 

This is the latest recevied weather packets stored in our database for station/object N5ATR. If no packets are shown the sender has not sent any weather packets the latest 10 day(s).

<< 30 31 32 33 34 35 36 >>
Time Temp. Humidity Pressure Rain* Wind** Luminosity Snow
1788487084 23.33° C 42% 1020.3 hPa 0 mm - 0 W/m² -
1788486780 23.33° C 40% 1020.4 hPa 0 mm - 0 W/m² -
1788486478 23.33° C 40% 1020.3 hPa 0 mm - 0 W/m² -
1788486174 23.89° C 40% 1020.6 hPa 0 mm - 0 W/m² -
1788485870 23.89° C 39% 1020.4 hPa 0 mm - 1 W/m² -
1788485566 23.89° C 39% 1020.6 hPa 0 mm - 2 W/m² -
1788485262 24.44° C 38% 1020.4 hPa 0 mm - 4 W/m² -
1788484961 24.44° C 38% 1020.4 hPa 0 mm - 6 W/m² -
1788484660 25° C 37% 1020.6 hPa 0 mm - 12 W/m² -
1788484356 25° C 37% 1020.3 hPa 0 mm - 16 W/m² -
1788484050 25° C 36% 1020.2 hPa 0 mm - 20 W/m² -
1788483747 25° C 36% 1020.4 hPa 0 mm - 22 W/m² -
1788483447 25° C 36% 1020.6 hPa 0 mm - 31 W/m² -
1788483144 25.56° C 36% 1020.3 hPa 0 mm - 35 W/m² -
1788482844 25.56° C 36% 1020.2 hPa 0 mm - 37 W/m² -
1788482539 25.56° C 35% 1020.6 hPa 0 mm - 44 W/m² -
1788482234 25.56° C 35% 1020.3 hPa 0 mm - 50 W/m² -
1788481930 25.56° C 35% 1020.6 hPa 0 mm - 56 W/m² -
1788481626 25.56° C 35% 1020.4 hPa 0 mm - 50 W/m² -
1788481322 25.56° C 35% 1020.3 hPa 0 mm - 48 W/m² -
1788481016 26.11° C 35% 1020.3 hPa 0 mm - 59 W/m² -
1788480715 26.11° C 35% 1020.2 hPa 0 mm - 80 W/m² -
1788480411 26.11° C 34% 1020.3 hPa 0 mm - 87 W/m² -
1788480106 26.11° C 34% 1020.2 hPa 0 mm - 83 W/m² -
1788479805 26.11° C 34% 1020.4 hPa 0 mm - 85 W/m² -

* Rain latest hour (hover to see other rain measurements)
** Current wind speed in m/s (hover to see current wind gust speed)